STARLINK-35483, 66252

Orbit data source: Space-Track

STARLINK-35483, 66252 is a payload satellite owned by SpaceX/Seattle (US) in LEO that was launched on Wed, 29 Oct 2025 UTC via an FALCON 9 launch vehicle from the Air Force Eastern Test Range (AFETR). Payload-class satellites include a variety of spacecraft equipped with specific instruments for various scientific and technological missions. These include communications satellites like Starlink; space stations such as the ISS; scientific satellites like the Hubble; Earth observation satellites from companies like Planet Labs, Umbra, and HawkEye 360; GPS; miniature CubeSats for education and research; and military/defense satellites.

Loading next visibility...
Identifier
66252, 2025-245U
Orbit
LEO
Country
Flag of USUS
Related business
Manufacturer
SpaceX/Seattle
Mission
Operational Commercial Communications
Bus & Motor
STARLINK V2MO, Unknown motor
Mass
575 kg wet, ~530 kg dry
Launch date (UTC)
2025-10-29 (8 months ago)
Launch vehicle
FALCON 9
Launch site
Air Force Eastern Test Range (AFETR)
Object type
Payload
Rocket body
Debris
Shape & HBR
Box + 2 Pan, 17.7 m
Radar Cross Section
36.964 m², Large (>1 m²)

Expand to show TLE details & history
Last TLE update: 16 hours ago

TLE from 16 hours ago
0 STARLINK-35483
1 66252U 25245U   26171.19076919  .00020934  00000-0  71654-3 0  9992
2 66252  53.1609 167.5133 0001303  87.9846 272.1304 15.30216785 36907
Epoch: 2026-06-20T04:34Z
TLE epoch observation values (Epoch: 2026-06-20T04:34:42.458Z)
Latitude
Longitude
-169.57255°
Altitude
476.032 km
Speed
7.629 km/s
True Right ascension
11h 10m 03s
True Declination
0° 00' 00"
Sunlit
Object was in daylight at epoch
Visualization orbit readout
Latitude
Unknown
Longitude
Unknown
Altitude
Unknown
Speed
Unknown
Apparent Right ascension
Unknown
Apparent Declination
Unknown
Sunlit
N/A
Visualization observer readout
Local Sidereal Time
07:12:28
Azimuth
Unknown
Elevation
Unknown
Doppler factor
Unknown
Orbital elements
Apogee altitude
476.314 km
Perigee altitude
474.528 km
Semi-major axis
6,853.558 km
Eccentricity
0.00013
Inclination
53.1609°
RAAN
167.5133°
Arg. of periapsis
87.9846°
True anomaly
272.11548°
Mean anomaly
272.1304°
Eccentric anomaly
272.12294°
Mean motion
3.82533 °/min
Orbital period
94.11 mins
BSTAR
0.00071654
Loading maneuver chart data...
Computing Atmospheric mass density...
Loading historical data...
Loading historical data...
Loading historical data...
Loading historical data...
Loading historical data...
Loading historical data...
Loading historical data...

Documentation

Showing up to 5 results
|